National Weather Service United States Department of Commerce

Latest Hourly Weather Roundup

TOPSWRTT 000
TTAA00 KICT 140912

Wichita AWIPS Roundup
National Weather Service Wichita KS
300 AM CST FRI DEC 14 2018

....Central Kansas....
  
CITY           SKY/WX    TMP DP  RH WIND       PRES   REMARKS
RUSSELL        CLEAR     26  23  88 N8        30.24R WCI  18          
SALINA         CLEAR     30  26  85 N10       30.24R WCI  21          
GREAT BEND     CLEAR     29  23  78 N13       30.24R WCI  19          
ELLSWORTH      CLEAR     30  25  80 N16       30.23R WCI  19          
LYONS          FAIR      29  24  81 N15       30.22R WCI  18          
MCPHERSON      NOT AVBL                                               
HAYS           CLEAR     28  20  71 N14       30.25S WCI  17          

....South Central Kansas....
  
CITY           SKY/WX    TMP DP  RH WIND       PRES   REMARKS
HUTCHINSON     CLEAR     33  26  75 N17G28    30.18R WCI  22          
NEWTON         CLEAR     30  27  88 N21G26    30.16R WCI  17          
KINGMAN        CLEAR     32  27  80 N16       30.19R WCI  21          
WICHITA (ICT)  PTCLDY    34  28  79 N20G29    30.15R WCI  23          
JABARA ARPT    CLOUDY    33  30  88 N24G37    30.15R WCI  20          
BEECH ARPT     CLOUDY    33  29  86 N23G29    30.15R WCI  20          
MCCONNELL AFB  NOT AVBL                                               
BENTON         CLOUDY    33  30  88 N15G22    30.15R WCI  23          
EL DORADO      CLOUDY    37  32  81 N25       30.13  WCI  26          
AUGUSTA        CLOUDY    34  32  93 N20G26    30.15R WCI  22          
HARPER         NOT AVBL                                               
WELLINGTON     MOCLDY    34  30  86 N20G30    30.13S WCI  22          
WINFIELD       CLOUDY    37  33  85 N21G30    30.12R WCI  26          
 
....Southeast Kansas....
  
CITY           SKY/WX    TMP DP  RH WIND       PRES   REMARKS
EUREKA         CLOUDY    36  32  86 N25G31    30.12S WCI  24          
IOLA           CLOUDY    35  35 100 N17G31    30.10R WCI  25          
CHANUTE        CLOUDY    37  36  96 N20G29    30.08R FOG     WCI  27  
PARSONS        CLOUDY    38  35  89 N17G28    30.07R WCI  28          
COFFEYVILLE    CLOUDY    38  36  92 N21G30    30.05R FOG     WCI  28  
INDEPENDENCE   CLOUDY    38  35  90 N18G26    30.06R WCI  28          
FORT SCOTT     CLOUDY    36  34  93 N17       30.05S FOG     WCI  25  
PITTSBURG      CLOUDY    38  37  97 N13G20    30.03  FOG     WCI  30  

....Western Kansas....
  
CITY           SKY/WX    TMP DP  RH WIND       PRES   REMARKS
GOODLAND       CLEAR     17  10  74 W10       30.25S WCI   5          
HILL CITY      CLEAR     22  17  81 W5        30.27S WCI  16          
LIBERAL        CLOUDY    22  13  68 NW14      30.26R WCI   9          
GARDEN CITY    CLOUDY    18  11  74 NW13      30.26R WCI   5          
DODGE CITY     CLEAR     25  15  66 N9        30.23R WCI  15          
PRATT          CLEAR     30  24  77 N16       30.20S WCI  18          
MEDICINE LODGE   N/A     33  23  66 N17G25    30.17R WCI  22          

....Northeast Kansas....
  
CITY           SKY/WX    TMP DP  RH WIND       PRES   REMARKS
CONCORDIA      CLEAR     30  24  78 NW6       30.24S WCI  24          
TOPEKA         CLOUDY    36  30  79 N17G24    30.19R WCI  26          
MANHATTAN      CLEAR     34  26  72 N7        30.22R WCI  28          
LAWRENCE       CLOUDY    37  32  82 N15G24    30.16R WCI  28          
OLATHE         CLOUDY    33  33 100 N16G24    30.12R FOG     WCI  23  
EMPORIA        CLOUDY    35  32  88 N15G28    30.15R WCI  25          

....Oklahoma....
  
CITY           SKY/WX    TMP DP  RH WIND       PRES   REMARKS
GAGE           CLEAR     32  19  58 N16G25    30.19R WCI  21          
PONCA CITY     CLOUDY    38  32  79 N24G37    30.09R WCI  27          
BARTLESVILLE   CLOUDY    39  35  86 N15G26    30.05R WCI  31          
TULSA          CLOUDY    40  38  93 N20       29.99R FOG     WCI  30  
OKLAHOMA CITY  LGT RAIN  36  33  89 N29G38    30.00R WCI  23          

Note: "fair" indicates few or no clouds below 12,000 feet with no
significant weather and/or obstructions to visibility.